Location: Bartshausen
(51.8454°N, 9.8167°E)
Time: 22:56:19
(UTC+00:00)

H-2A R/B - Pass Details

Date: 08 November 2025
Orbit: 523 x 537 km, 98.2° (Epoch: 03 December)

Event Time Altitude Azimuth Distance (km) Brightness Sun altitude
Rises 04:03:12 0° 13° (NNE) 2,685 7.0 -22.4°
Reaches altitude 10° 04:05:19 10° 11° (NNE) 1,787 6.1 -22.1°
Enters shadow 04:08:49 67° 332° (NNW) 577 3.2 -21.6°
